Weather History for Melbourne, FL

Change the Weather History Date:

Friday, December 20, 2013

  Actual Average Record
Temperature  
Mean Temperature 66 °F 62 °F  
Max Temperature 79 °F 73 °F 83 °F (1971)
Min Temperature 53 °F 52 °F 29 °F (2000)
Degree Days  
Heating Degree Days 0 5  
Month to date heating degree days 25 76  
Since 1 July heating degree days 39 118  
Cooling Degree Days 1 2  
Month to date cooling degree days 86 53  
Year to date cooling degree days 3683 3248  
Growing Degree Days 16 (Base 50)    
Moisture  
Dew Point 59 °F    
Average Humidity 71    
Maximum Humidity 93    
Minimum Humidity 48    
Precipitation  
Precipitation 0.00 in 0.09 in 1.52 in (1973)
Month to date precipitation 1.44 1.71  
Year to date precipitation 42.12 51.14  
Sea Level Pressure  
Sea Level Pressure 30.18 in    
Wind  
Wind Speed 6 mph (ESE)    
Max Wind Speed 17 mph    
Max Gust Speed 24 mph    
Visibility 10 miles    
Events      
T = Trace of Precipitation, MM = Missing Value Source: NWS Daily Summary

Daily Weather History Graph

Daily Weather History Graph

Search for Another Location

Airport:

Trip Planner

Search our weather history database for the weather conditions in past years. The results will help you decide how hot, cold, wet, or windy it might be!

Date:

Astronomy

Dec. 20, 2013 Rise Set
Actual Time 7:09 AM EST 5:31 PM EST
Civil Twilight 6:43 AM EST 5:57 PM EST
Nautical Twilight 6:14 AM EST 6:26 PM EST
Astronomical Twilight 5:45 AM EST 6:55 PM EST
Moon 8:36 PM EST (12/20) 9:15 AM EST (12/20)
Length of Visible Light 11h 13m
Length of Day
10h 21m
Waning Gibbous, 90% of the Moon is Illuminated
Dec 20
Waning Gibbous
Dec 25
Last Quarter
Jan 1
New
Jan 7
First Quarter
Jan 15
Full

Hourly Weather History & Observations

Time (EST) Temp. Dew Point Humidity Pressure Visibility Wind Dir Wind Speed Gust Speed Precip Events Conditions
12:53 AM 57.9 °F 55.0 °F 90% 30.19 in 10.0 mi Calm Calm - N/A   Clear
1:53 AM 57.0 °F 53.1 °F 87% 30.18 in 10.0 mi Calm Calm - N/A   Clear
2:53 AM 55.9 °F 53.1 °F 90% 30.18 in 10.0 mi Calm Calm - N/A   Clear
3:53 AM 54.0 °F 52.0 °F 93% 30.18 in 10.0 mi Calm Calm - N/A   Clear
4:53 AM 53.1 °F 51.1 °F 93% 30.18 in 10.0 mi Calm Calm - N/A   Clear
5:53 AM 54.0 °F 52.0 °F 93% 30.18 in 10.0 mi Calm Calm - N/A   Clear
6:53 AM 54.0 °F 51.1 °F 90% 30.19 in 10.0 mi Calm Calm - N/A   Clear
7:53 AM 57.0 °F 54.0 °F 89% 30.20 in 10.0 mi Calm Calm - N/A   Clear
8:53 AM 70.0 °F 63.0 °F 78% 30.22 in 10.0 mi Calm Calm - N/A   Clear
9:53 AM 75.9 °F 61.0 °F 60% 30.23 in 10.0 mi ESE 6.9 mph - N/A   Clear
10:53 AM 77.0 °F 61.0 °F 58% 30.22 in 10.0 mi SE 12.7 mph - N/A   Clear
11:53 AM 79.0 °F 61.0 °F 54% 30.20 in 10.0 mi SE 15.0 mph 21.9 mph N/A   Clear
12:53 PM 79.0 °F 60.1 °F 52% 30.17 in 10.0 mi SE 13.8 mph - N/A   Clear
1:53 PM 79.0 °F 60.1 °F 52% 30.15 in 10.0 mi SE 15.0 mph 19.6 mph N/A   Clear
2:53 PM 79.0 °F 57.9 °F 48% 30.14 in 10.0 mi SSE 13.8 mph - N/A   Clear
3:53 PM 77.0 °F 59.0 °F 54% 30.14 in 10.0 mi SE 11.5 mph - N/A   Clear
4:53 PM 75.9 °F 60.1 °F 58% 30.15 in 10.0 mi ESE 8.1 mph - N/A   Overcast
5:53 PM 73.9 °F 62.1 °F 66% 30.16 in 10.0 mi ESE 4.6 mph - N/A   Overcast
6:53 PM 73.0 °F 64.0 °F 73% 30.18 in 10.0 mi East 3.5 mph - N/A   Mostly Cloudy
7:53 PM 73.0 °F 64.9 °F 76% 30.19 in 10.0 mi East 5.8 mph - N/A   Scattered Clouds
8:53 PM 73.0 °F 66.0 °F 79% 30.20 in 10.0 mi ESE 5.8 mph - N/A   Clear
9:53 PM 72.0 °F 64.9 °F 78% 30.19 in 10.0 mi ESE 5.8 mph - N/A   Clear
10:53 PM 73.0 °F 64.9 °F 76% 30.18 in 10.0 mi SE 8.1 mph - N/A   Clear
11:53 PM 71.1 °F 66.0 °F 84% 30.16 in 10.0 mi SE 6.9 mph - N/A   Clear